GPRO Georgia

Formula 1 online manager


    Season 29, Race 7: Zolder GP (Belgium)

    Share
    avatar
    mrfantom
    Admin

    Posts : 211
    Join date : 01.09.11
    Age : 28
    Location : Tbilisi

    Season 29, Race 7: Zolder GP (Belgium)

    Post by mrfantom on Sun Feb 05, 2012 5:07 pm




    ადგილმდებარეობა: ბელგია
    თარიღი: 3 თებერვალი, 2012 წ.

    ტრასის პარამეტრები:
    სარბოლო დისტანცია: 298.3 კმ
    წრეების რაოდენობა: 70
    წრის სიგრძე: 4.261 კმ
    საშუალო სიჩქარე: 223.26 კმ/სთ
    ჩატარებული რბოლები: 8
    მოსახვევების რაოდენობა: 17
    პიტზე შესვლა/გამოსვლის დრო: 19.5 წმ.

    სიმძლავრე: 11
    მართვადობა: 9
    აჩქარება: 10

    დამწოლი ძალა: საშუალო
    გასწრება: ძნელი
    დაკიდების სიხისტე: საშუალო
    საწვავის ხარჯი: დაბალი
    საბურავების ცვეთა: საშუალო
    მოჭიდების ხარისხი: დაბალი

    პრაქტიკა/კვალიფიკაცია 1

    ტემპ: 30°C
    ტენიანობა: 80%
    კვალიფიკაცია 2/რბოლის სტარტი

    ტემპ: 34°C
    ტენიანობა: 89%
    სტარტი - 0ს30წთ
    ტემპ: 34°-37°
    ტენიანობა: 90%-97%
    წვიმის ალბათობა: 80%-85%
    0ს30წთ - 1ს
    ტემპ: 33°-38°
    ტენიანობა: 90%-98%
    წვიმის ალბათობა: 10%-20%
    1ს - 1ს30წთ
    ტემპ: 35°-40°
    ტენიანობა: 89%-100%
    წვიმის ალბათობა: 0%
    1ს30წთ - 2ს
    ტემპ: 36°-41°
    ტენიანობა: 89%-98%
    წვიმის ალბათობა: 0%-5%


    Last edited by mrfantom on Sun Feb 05, 2012 5:20 pm; edited 1 time in total
    avatar
    mrfantom
    Admin

    Posts : 211
    Join date : 01.09.11
    Age : 28
    Location : Tbilisi

    Re: Season 29, Race 7: Zolder GP (Belgium)

    Post by mrfantom on Sun Feb 05, 2012 5:19 pm

    Lap informationLap Lap time Pos Tyres Weather Temp Hum Events
    0 - 2 Rain Rain 34° 89% -
    1 1:33.325 3 Rain Rain 34° 89% -
    2 1:30.028 3 Rain Rain 34° 89% -
    3 1:29.380 3 Rain Rain 34° 89% -
    4 1:30.335 3 Rain Rain 34° 90% -
    5 1:30.297 3 Rain Rain 34° 90% -
    6 1:29.124 3 Rain Rain 34° 90% -
    7 1:29.995 4 Rain Rain 34° 90% -
    8 1:30.287 4 Rain Rain 34° 90% -
    9 1:29.453 4 Rain Rain 34° 90% -
    10 1:29.109 4 Rain Rain 34° 90% -
    11 1:29.022 4 Rain Rain 34° 90% -
    12 1:30.022 4 Rain Rain 34° 90% -
    13 1:29.656 4 Rain Rain 34° 90% -
    14 1:28.682 4 Rain Rain 34° 90% -
    15 1:29.334 4 Rain Rain 35° 90% -
    16 1:29.046 4 Rain Rain 35° 90% -
    17 1:29.361 4 Rain Rain 36° 90% -
    18 1:29.874 4 Rain Rain 37° 90% -
    19 1:29.813 4 Rain Rain 37° 90% -
    20 1:29.252 4 Rain Rain 37° 90% -
    21 1:29.141 4 Rain Rain 36° 90% -
    22 1:29.148 4 Rain Rain 36° 90% -
    23 1:29.057 4 Rain Rain 35° 90% -
    24 1:28.810 4 Rain Rain 35° 90% -
    25 1:28.846 4 Rain Rain 35° 90% -
    26 1:28.999 2 Rain Rain 34° 90% -
    27 1:28.847 2 Rain Rain 33° 90% -
    28 1:29.262 2 Rain Rain 34° 90% -
    29 1:28.994 2 Rain Rain 35° 90% -
    30 1:30.876 3 Rain Very Cloudy 36° 89% Pit
    31 1:58.275 6 Extra Soft Very Cloudy 36° 89% -
    32 1:17.047 3 Extra Soft Very Cloudy 37° 89% -
    33 1:16.587 3 Extra Soft Very Cloudy 37° 90% -
    34 1:16.515 3 Extra Soft Very Cloudy 37° 90% -
    35 1:16.422 3 Extra Soft Very Cloudy 38° 90% -
    36 1:16.467 3 Extra Soft Very Cloudy 38° 90% -
    37 1:16.331 2 Extra Soft Very Cloudy 38° 90% -
    38 1:16.375 2 Extra Soft Very Cloudy 38° 90% -
    39 1:16.201 2 Extra Soft Very Cloudy 38° 90% -
    40 1:16.151 2 Extra Soft Very Cloudy 38° 90% -
    41 1:16.112 2 Extra Soft Very Cloudy 38° 90% -
    42 1:16.155 2 Extra Soft Very Cloudy 37° 90% -
    43 1:16.153 2 Extra Soft Very Cloudy 36° 90% -
    44 1:17.078 2 Extra Soft Very Cloudy 36° 90% -
    45 1:18.231 2 Extra Soft Very Cloudy 36° 90% -
    46 1:29.443 3 Extra Soft Very Cloudy 35° 90% Pit
    47 1:56.379 4 Extra Soft Very Cloudy 35° 90% -
    48 1:16.615 4 Extra Soft Very Cloudy 35° 90% -
    49 1:16.303 4 Extra Soft Very Cloudy 35° 90% -
    50 1:16.218 4 Extra Soft Very Cloudy 35° 90% -
    51 1:16.082 4 Extra Soft Very Cloudy 36° 89% -
    52 1:16.023 4 Extra Soft Very Cloudy 36° 89% -
    53 1:16.031 4 Extra Soft Very Cloudy 36° 89% -
    54 1:15.940 3 Extra Soft Very Cloudy 37° 89% -
    55 1:15.912 3 Extra Soft Very Cloudy 37° 89% -
    56 1:15.843 3 Extra Soft Very Cloudy 38° 89% -
    57 1:15.761 2 Extra Soft Very Cloudy 39° 89% -
    58 1:15.851 2 Extra Soft Very Cloudy 40° 89% -
    59 1:15.760 2 Extra Soft Very Cloudy 40° 89% -
    60 1:16.566 2 Extra Soft Very Cloudy 40° 89% -
    61 1:27.700 2 Extra Soft Very Cloudy 40° 89% Pit
    62 1:52.352 3 Extra Soft Very Cloudy 40° 89% -
    63 1:16.474 3 Extra Soft Very Cloudy 40° 89% -
    64 1:16.214 3 Extra Soft Very Cloudy 40° 89% -
    65 1:16.167 3 Extra Soft Very Cloudy 40° 89% -
    66 1:16.059 3 Extra Soft Very Cloudy 40° 89% -
    67 1:16.090 3 Extra Soft Very Cloudy 40° 89% -
    68 1:15.969 3 Extra Soft Very Cloudy 40° 89% -
    69 1:15.868 3 Extra Soft Very Cloudy 40° 89% -
    70 1:15.742 3 Extra Soft Very Cloudy 39° 89% -

    Lap informationLap Lap time Pos Tyres Weather Temp Hum Events
    0 - 2 Rain Rain 34° 89% -
    1 1:33.325 3 Rain Rain 34° 89% -
    2 1:30.028 3 Rain Rain 34° 89% -
    3 1:29.380 3 Rain Rain 34° 89% -
    4 1:30.335 3 Rain Rain 34° 90% -
    5 1:30.297 3 Rain Rain 34° 90% -
    6 1:29.124 3 Rain Rain 34° 90% -
    7 1:29.995 4 Rain Rain 34° 90% -
    8 1:30.287 4 Rain Rain 34° 90% -
    9 1:29.453 4 Rain Rain 34° 90% -
    10 1:29.109 4 Rain Rain 34° 90% -
    11 1:29.022 4 Rain Rain 34° 90% -
    12 1:30.022 4 Rain Rain 34° 90% -
    13 1:29.656 4 Rain Rain 34° 90% -
    14 1:28.682 4 Rain Rain 34° 90% -
    15 1:29.334 4 Rain Rain 35° 90% -
    16 1:29.046 4 Rain Rain 35° 90% -
    17 1:29.361 4 Rain Rain 36° 90% -
    18 1:29.874 4 Rain Rain 37° 90% -
    19 1:29.813 4 Rain Rain 37° 90% -
    20 1:29.252 4 Rain Rain 37° 90% -
    21 1:29.141 4 Rain Rain 36° 90% -
    22 1:29.148 4 Rain Rain 36° 90% -
    23 1:29.057 4 Rain Rain 35° 90% -
    24 1:28.810 4 Rain Rain 35° 90% -
    25 1:28.846 4 Rain Rain 35° 90% -
    26 1:28.999 2 Rain Rain 34° 90% -
    27 1:28.847 2 Rain Rain 33° 90% -
    28 1:29.262 2 Rain Rain 34° 90% -
    29 1:28.994 2 Rain Rain 35° 90% -
    30 1:30.876 3 Rain Very Cloudy 36° 89% Pit
    31 1:58.275 6 Extra Soft Very Cloudy 36° 89% -
    32 1:17.047 3 Extra Soft Very Cloudy 37° 89% -
    33 1:16.587 3 Extra Soft Very Cloudy 37° 90% -
    34 1:16.515 3 Extra Soft Very Cloudy 37° 90% -
    35 1:16.422 3 Extra Soft Very Cloudy 38° 90% -
    36 1:16.467 3 Extra Soft Very Cloudy 38° 90% -
    37 1:16.331 2 Extra Soft Very Cloudy 38° 90% -
    38 1:16.375 2 Extra Soft Very Cloudy 38° 90% -
    39 1:16.201 2 Extra Soft Very Cloudy 38° 90% -
    40 1:16.151 2 Extra Soft Very Cloudy 38° 90% -
    41 1:16.112 2 Extra Soft Very Cloudy 38° 90% -
    42 1:16.155 2 Extra Soft Very Cloudy 37° 90% -
    43 1:16.153 2 Extra Soft Very Cloudy 36° 90% -
    44 1:17.078 2 Extra Soft Very Cloudy 36° 90% -
    45 1:18.231 2 Extra Soft Very Cloudy 36° 90% -
    46 1:29.443 3 Extra Soft Very Cloudy 35° 90% Pit
    47 1:56.379 4 Extra Soft Very Cloudy 35° 90% -
    48 1:16.615 4 Extra Soft Very Cloudy 35° 90% -
    49 1:16.303 4 Extra Soft Very Cloudy 35° 90% -
    50 1:16.218 4 Extra Soft Very Cloudy 35° 90% -
    51 1:16.082 4 Extra Soft Very Cloudy 36° 89% -
    52 1:16.023 4 Extra Soft Very Cloudy 36° 89% -
    53 1:16.031 4 Extra Soft Very Cloudy 36° 89% -
    54 1:15.940 3 Extra Soft Very Cloudy 37° 89% -
    55 1:15.912 3 Extra Soft Very Cloudy 37° 89% -
    56 1:15.843 3 Extra Soft Very Cloudy 38° 89% -
    57 1:15.761 2 Extra Soft Very Cloudy 39° 89% -
    58 1:15.851 2 Extra Soft Very Cloudy 40° 89% -
    59 1:15.760 2 Extra Soft Very Cloudy 40° 89% -
    60 1:16.566 2 Extra Soft Very Cloudy 40° 89% -
    61 1:27.700 2 Extra Soft Very Cloudy 40° 89% Pit
    62 1:52.352 3 Extra Soft Very Cloudy 40° 89% -
    63 1:16.474 3 Extra Soft Very Cloudy 40° 89% -
    64 1:16.214 3 Extra Soft Very Cloudy 40° 89% -
    65 1:16.167 3 Extra Soft Very Cloudy 40° 89% -
    66 1:16.059 3 Extra Soft Very Cloudy 40° 89% -
    67 1:16.090 3 Extra Soft Very Cloudy 40° 89% -
    68 1:15.969 3 Extra Soft Very Cloudy 40° 89% -
    69 1:15.868 3 Extra Soft Very Cloudy 40° 89% -
    70 1:15.742 3 Extra Soft Very Cloudy 39° 89% -
    avatar
    Matador

    Posts : 216
    Join date : 02.09.11
    Age : 35

    Re: Season 29, Race 7: Zolder GP (Belgium)

    Post by Matador on Sun Feb 05, 2012 5:52 pm

    Season: 29
    Risks: 25
    Experience: 193
    Technical Insight: 237
    Engine: 6
    Electronics: 6

    Tyres: Medium (P) 139%, Rain (P) 76 (1 lap dry)
    Fuel: 162.8 L

    Pit Pitstop reason Tyres condition
    Fuel left Refilled to Pit time
    Stop 1
    (Lap 31) Tyres change due to the weather change 24% 8% 67 liters 24.393s
    Stop 2
    (Lap 56) No more fuel was left 15% 1% 67 liters 27.930s



    Tyres condition after finish: 51%

    Fuel left in the car after finish: 30 liters
    avatar
    macbook

    Posts : 90
    Join date : 02.09.11

    Re: Season 29, Race 7: Zolder GP (Belgium)

    Post by macbook on Sun Feb 05, 2012 7:45 pm


    Track Information For Zolder (Belgium)

    Practice laps data
    Lap Lap time Driver mistake Net time Settings
    FWing RWing Engine Brakes Gear Susp Tyres Comm
    1 1:18.473s 0.001s 1:18.472s 800 800 600 500 600 450 Extra Soft
    2 1:18.427s 0.045s 1:18.382s 800 800 600 588 600 622 Extra Soft
    3 1:18.570s 0.096s 1:18.474s 750 850 600 588 600 622 Extra Soft
    4 1:18.390s 0.023s 1:18.367s 850 750 600 588 600 622 Extra Soft
    5 1:18.540s 0.086s 1:18.454s 900 700 600 588 600 622 Extra Soft
    6 1:18.359s 0.002s 1:18.357s 825 775 600 588 600 622 Extra Soft
    7 1:19.190s 0.014s 1:19.176s 825 775 600 588 600 622 Hard
    8 1:18.944s 0.041s 1:18.903s 825 775 600 588 600 622 Medium
    Practice lap 8 comments from your driver:

    I am satisfied with the setup of the car


    Race information
    Lap times
    Qualification 1 Qualification 2
    1:18.413s 1:33.252s

    Setups used
    Session FWing RWing Eng Bra Gear Susp Tyres
    Q1 825 775 600 588 600 622 Medium
    Q2 906 856 532 643 487 535 Rain
    Race 888 838 540 649 510 617 -

    Risks used
    Starting risk
    Overtake where possible
    Overtake Defend Clear Malfunct
    40 40 20 20

    Driver attributes
    Driver name OA Con Tal Exp Age Sta Mot TeI Agr Cha Wei Rep
    Radu Hora 102 250 71 66 22 27 250 134 10 20 82 31

    Positions
    Start Finish
    2 1

    Overall car character
    Power Handling Acceleration
    27 31 28

    Sessions weather
    Practice / Qualify 1 Qualify 2 / Race start

    Temp: 30°C
    Humidity: 80%
    Temp: 34°C
    Humidity: 89%
    Race forecast
    Start - 0h30m 0h30m - 1h
    Temp: 34° - 37°
    Humidity: 90% - 97%
    Rain probability: 80% - 85% Temp: 33° - 38°
    Humidity: 90% - 98%
    Rain probability: 10% - 20%
    1h - 1h30m 1h30m - 2h
    Temp: 35° - 40°
    Humidity: 89% - 100%
    Rain probability: 0% Temp: 36° - 41°
    Humidity: 89% - 98%
    Rain probability: 0% - 5%


    Start fuel: 80 liters

    Pit Pitstop reason Tyres condition Fuel left Refilled to Pit time
    Stop 1:
    (Lap 31) Tyres change due to the weather change 19% 5% 80 liters 25.396s
    Stop 2:
    (Lap 56) No more fuel was left 12% 2% 80 liters 22.226s

    Tyres condition after finish: 50%

    Fuel left in the car after finish: 36 liters

    Show financial analysis as:
    Table
    Graph
    Financial analysis of the last race
    Earnings
    Driver race position (1): $8.000.000
    Driver qualifying position (2): $450.000
    Sponsor money: $1.000.000
    Costs
    Driver salary: $-750.000
    Staff salary: $-261.000
    Facility costs: $-190.000
    Tyres contract (Pipirelli): $-250.000

    Total: $7.999.000

    Current balance: $57.874.000
    Car wear & lap information
    Car parts level
    Cha Eng FWing RWing Underb Sidep Cool Gear Bra Susp Elec
    2 2 2 2 2 2 2 2 3 3 2
    Car parts wear (at the start)
    22% 77% 22% 24% 19% 16% 0% 67% 0% 0% 0%
    Car parts wear (at the finish)
    36% 93% 42% 42% 35% 34% 17% 98% 21% 23% 15%
    Lap Lap time Pos Tyres Weather Temp Hum Events
    0 - 2 Rain Rain 34° 89% -
    1 1:35.950 2 Rain Rain 34° 89% -
    2 1:31.507 2 Rain Rain 34° 89% -
    3 1:30.225 2 Rain Rain 34° 89% -
    4 1:30.834 3 Rain Rain 34° 90% -
    5 1:30.736 2 Rain Rain 34° 90% -
    6 1:30.399 2 Rain Rain 34° 90% -
    7 1:30.521 2 Rain Rain 34° 90% -
    8 1:30.619 2 Rain Rain 34° 90% -
    9 1:30.478 2 Rain Rain 34° 90% -
    10 1:30.568 2 Rain Rain 34° 90% -
    11 1:29.359 2 Rain Rain 34° 90% -
    12 1:30.142 2 Rain Rain 34° 90% -
    13 1:30.434 2 Rain Rain 34° 90% -
    14 1:29.463 2 Rain Rain 34° 90% -
    15 1:30.055 2 Rain Rain 35° 90% -
    16 1:30.502 2 Rain Rain 35° 90% -
    17 1:30.782 2 Rain Rain 36° 90% -
    18 1:30.378 2 Rain Rain 37° 90% -
    19 1:30.052 2 Rain Rain 37° 90% -
    20 1:29.128 2 Rain Rain 37° 90% -
    21 1:29.688 2 Rain Rain 36° 90% -
    22 1:29.372 2 Rain Rain 36° 90% -
    23 1:30.637 2 Rain Rain 35° 90% -
    24 1:30.446 2 Rain Rain 35° 90% -
    25 1:28.587 2 Rain Rain 35° 90% -
    26 1:30.118 2 Rain Rain 34° 90% -
    27 1:33.406 3 Rain Rain 33° 90% Driver mistake
    28 1:29.820 3 Rain Rain 34° 90% -
    29 1:29.640 3 Rain Rain 35° 90% -
    30 1:21.480 2 Rain Very Cloudy 36° 89% -
    31 1:31.177 3 Rain Very Cloudy 36° 89% Pit
    32 1:53.152 4 Medium Very Cloudy 37° 89% -
    33 1:17.550 3 Medium Very Cloudy 37° 90% -
    34 1:17.153 3 Medium Very Cloudy 37° 90% -
    35 1:17.115 3 Medium Very Cloudy 38° 90% -
    36 1:16.860 3 Medium Very Cloudy 38° 90% -
    37 1:16.741 3 Medium Very Cloudy 38° 90% -
    38 1:17.373 3 Medium Very Cloudy 38° 90% -
    39 1:16.807 3 Medium Very Cloudy 38° 90% -
    40 1:17.117 2 Medium Very Cloudy 38° 90% -
    41 1:16.784 2 Medium Very Cloudy 38° 90% -
    42 1:16.800 2 Medium Very Cloudy 37° 90% -
    43 1:16.768 2 Medium Very Cloudy 36° 90% -
    44 1:16.634 2 Medium Very Cloudy 36° 90% -
    45 1:16.649 2 Medium Very Cloudy 36° 90% -
    46 1:16.567 1 Medium Very Cloudy 35° 90% -
    47 1:16.499 1 Medium Very Cloudy 35° 90% -
    48 1:16.470 1 Medium Very Cloudy 35° 90% -
    49 1:16.413 1 Medium Very Cloudy 35° 90% -
    50 1:16.376 1 Medium Very Cloudy 35° 90% -
    51 1:16.323 1 Medium Very Cloudy 36° 89% -
    52 1:16.221 1 Medium Very Cloudy 36° 89% -
    53 1:16.175 1 Medium Very Cloudy 36° 89% -
    54 1:16.108 1 Medium Very Cloudy 37° 89% -
    55 1:16.541 1 Medium Very Cloudy 37° 89% -
    56 1:26.790 1 Medium Very Cloudy 38° 89% Pit
    57 1:49.974 2 Medium Very Cloudy 39° 89% -
    58 1:17.505 2 Medium Very Cloudy 40° 89% -
    59 1:17.102 2 Medium Very Cloudy 40° 89% -
    60 1:17.121 1 Medium Very Cloudy 40° 89% -
    61 1:17.006 1 Medium Very Cloudy 40° 89% -
    62 1:16.941 1 Medium Very Cloudy 40° 89% -
    63 1:16.872 1 Medium Very Cloudy 40° 89% -
    64 1:16.815 1 Medium Very Cloudy 40° 89% -
    65 1:16.827 1 Medium Very Cloudy 40° 89% -
    66 1:16.739 1 Medium Very Cloudy 40° 89% -
    67 1:16.723 1 Medium Very Cloudy 40° 89% -
    68 1:16.576 1 Medium Very Cloudy 40° 89% -
    69 1:16.543 1 Medium Very Cloudy 40° 89% -
    70 1:16.492 1 Medium Very Cloudy 39° 89% -

    Sponsored content

    Re: Season 29, Race 7: Zolder GP (Belgium)

    Post by Sponsored content


      Current date/time is Fri Aug 18, 2017 1:58 pm